FW5669 Weather Reports


time (UTC)temp
C
wind
direction
speed
KPH
gust
KPH
rain 1hr
cm
rain 24hr
cm
rain mn
cm
humidity
%
barometer
mb
20260506061502 12 44 0.0 0.0 0.00 0.15 0.08 91 1020.3
20260506044501 13 44 0.0 0.0 0.00 0.81 0.08 88 1019.5
20260506043103 13 44 0.0 0.0 0.00 0.81 0.08 87 1019.4
20260506041501 13 44 0.0 1.6 0.00 0.81 0.08 86 1019.3
20260506040003 13 44 0.0 0.0 0.00 1.70 0.08 86 1019.1
20260506034604 13 44 0.0 1.6 0.00 1.70 0.08 85 1018.9
20260506033120 13 55 0.0 1.6 0.00 1.70 0.08 86 1018.7
20260506031600 13 61 0.0 1.6 0.00 1.70 0.08 85 1018.7
20260506030104 13 98 0.0 1.6 0.00 1.70 0.08 84 1018.6
20260506024615 13 98 0.0 3.2 0.00 2.24 0.08 83 1018.4
20260506023106 13 77 0.0 1.6 0.00 2.24 0.08 84 1018.0
20260506021602 14 43 0.0 1.6 0.00 2.24 0.08 82 1018.1
20260506020100 14 37 0.0 3.2 0.00 2.24 0.08 82 1017.7
20260506020002 14 37 0.0 3.2 0.00 2.24 0.08 82 1017.7
20260506014501 14 60 1.6 6.4 0.00 2.49 0.08 80 1017.7
20260506013002 14 40 0.0 6.4 0.00 2.49 0.08 80 1017.5
20260506011502 14 52 1.6 9.7 0.00 2.49 0.08 80 1017.7
20260506010120 14 42 1.6 4.8 0.00 2.49 0.08 80 1017.4
20260506004559 14 81 0.0 3.2 0.00 2.79 0.08 79 1017.6
20260506003101 14 77 0.0 1.6 0.00 2.79 0.08 80 1017.5
20260506001602 14 77 0.0 3.2 0.00 2.79 0.08 80 1017.5
20260506000002 14 216 0.0 1.6 0.00 2.79 0.08 83 1017.3
20260505234502 13 216 0.0 3.2 0.00 3.05 0.08 81 1017.4
20260505233101 13 202 0.0 1.6 0.00 3.05 0.08 83 1017.4
20260505231601 13 174 0.0 3.2 0.00 3.05 0.08 81 1017.4
20260505230004 14 314 0.0 3.2 0.00 3.05 0.08 81 1017.4
20260505224601 14 273 0.0 3.2 0.00 3.35 0.08 81 1017.5
20260505223001 14 249 0.0 4.8 0.00 3.35 0.08 81 1017.5
20260505221606 14 176 0.0 4.8 0.00 3.35 0.08 82 1017.6
20260505221502 14 172 1.6 4.8 0.00 3.35 0.08 81 1017.6
20260505220108 14 179 0.0 3.2 0.00 3.35 0.08 81 1017.8
20260505220001 14 177 0.0 3.2 0.00 3.35 0.08 81 1017.7
20260505214503 14 233 0.0 3.2 0.00 3.61 0.08 82 1017.9
20260505213100 14 172 0.0 3.2 0.00 3.61 0.08 81 1018.1
20260505213002 14 178 1.6 3.2 0.00 3.61 0.08 82 1018.2
20260505211600 13 202 0.0 3.2 0.00 3.61 0.08 82 1018.1
20260505210100 13 273 0.0 3.2 0.00 3.61 0.08 82 1018.0
20260505204611 13 273 0.0 3.2 0.00 3.71 0.08 83 1017.9
20260505203108 13 233 0.0 3.2 0.00 3.71 0.08 84 1017.8
20260505201600 13 156 0.0 4.8 0.00 3.71 0.08 84 1018.1
20260505200100 13 229 0.0 3.2 0.00 3.71 0.08 84 1018.1
20260505200002 13 233 0.0 3.2 0.00 3.71 0.08 84 1018.1
20260505194501 13 196 0.0 3.2 0.00 3.73 0.08 84 1018.0
20260505193100 13 189 1.6 4.8 0.00 3.73 0.08 83 1018.1
20260505193001 13 195 1.6 4.8 0.00 3.73 0.08 82 1018.1
20260505191601 13 170 0.0 4.8 0.00 3.73 0.08 82 1018.0
20260505190002 13 179 3.2 4.8 0.00 3.73 0.08 82 1017.9
20260505184600 13 227 0.0 3.2 0.00 3.73 0.08 84 1017.9
20260505183108 13 189 0.0 3.2 0.00 3.73 0.08 84 1017.9
20260505181615 13 251 1.6 3.2 0.00 3.73 0.08 81 1017.8
20260505180100 12 288 0.0 3.2 0.00 3.73 0.08 83 1017.7
20260505180002 12 289 0.0 3.2 0.00 3.73 0.08 84 1017.7
20260505174502 12 236 0.0 3.2 0.00 3.73 0.08 83 1017.6
20260505173002 12 177 0.0 4.8 0.00 3.73 0.08 86 1017.5
20260505171502 11 185 0.0 3.2 0.00 3.73 0.08 90 1017.6
20260505170001 11 278 1.6 3.2 0.00 3.73 0.08 92 1017.6
20260505164604 11 133 0.0 1.6 0.00 3.73 0.08 94 1017.6
20260505163059 10 55 0.0 3.2 0.00 3.73 0.08 94 1017.7
20260505161604 10 60 0.0 3.2 0.00 3.73 0.08 94 1017.4
20260505153115 9 27 0.0 1.6 0.00 3.73 0.08 95 1017.4
20260505151600 9 85 0.0 3.2 0.00 3.73 0.08 95 1017.3
20260505151500 9 77 0.0 3.2 0.00 3.73 0.08 95 1017.2
20260505140107 9 33 0.0 1.6 0.00 3.73 0.08 96 1016.6
20260505124612 9 40 0.0 1.6 0.00 3.73 0.08 96 1016.2
20260505124501 9 40 0.0 1.6 0.00 3.73 0.08 96 1016.2
20260505123102 9 48 0.0 3.2 0.00 3.73 0.08 96 1016.1
20260505121600 9 75 0.0 1.6 0.00 3.73 0.08 96 1016.2
20260505120108 9 58 0.0 3.2 0.00 3.73 0.08 96 1016.0
20260505114559 9 62 0.0 1.6 0.00 3.73 0.08 96 1016.1
20260505113115 9 68 1.6 3.2 0.00 3.73 0.08 96 1016.3
20260505111559 9 64 0.0 3.2 0.00 3.73 0.08 96 1016.4
20260505101559 9 29 1.6 6.4 0.00 3.73 0.08 96 1016.5
20260505094600 9 24 1.6 4.8 0.00 3.73 0.08 95 1016.5
20260505093107 9 63 1.6 4.8 0.00 3.73 0.08 95 1016.6
20260505091559 9 58 1.6 4.8 0.00 3.73 0.08 96 1016.7
20260505090101 9 51 0.0 3.2 0.00 3.73 0.08 96 1016.9
20260505084559 9 55 1.6 4.8 0.00 3.73 0.08 96 1017.1
20260505083104 9 75 1.6 8.0 0.00 3.73 0.08 96 1017.3
20260505081559 9 68 0.0 3.2 0.00 3.73 0.08 96 1017.3
20260505080113 9 62 0.0 4.8 0.05 3.73 0.08 96 1017.2
20260505080002 9 62 0.0 4.8 0.05 3.73 0.08 96 1017.2
20260505074504 9 51 0.0 1.6 0.08 3.73 0.08 96 1017.1
20260505073002 9 46 0.0 1.6 0.13 3.73 0.08 96 1017.2